Weather in Citeko

Indonesia     6°41′23″S   106°55′53″E
temp.,
°C
wind,
m/s
gust,
m/s
humid.,
%
clouds,
%
prec.,
mm/h
press.,
hPa
HPBL,
m
18 april, sun
sun1801:00+19wsw009595 4.5 101514
04:00+18wnw119597 0.0 101411
07:00+20wnw1191100 0.0 101568
10:00+24n117695 0.8 1015771
13:00+24nw117662 3.8 1013725
16:00+23sw1280100 2.8 1012648
19:00+19ssw119798 3.8 101434
22:00+18ssw2197100 2.1 101539
19 april, mon
mon1901:00+18sw119385 2.1 101419
04:00+17sw119036 0.0 101312
07:00+20nnw018522 0.0 101550
10:00+25ne116631 0.1 10141016
13:00+23nne117985 2.1 1012630
16:00+22n1182100 2.1 1010426
19:00+20wsw119590 3.4 101324
22:00+20w009599 1.6 101416
20 april, tue
tue2001:00+20nne009491 2.1 101212
04:00+20nne119375 2.6 101213
07:00+20n019284 3.4 101443
10:00+24nne117860 2.8 1014829
13:00+23n118286 8.3 1012601
16:00+21nnw018990 6.8 1011180
19:00+20ssw0095100 13.7 101312
22:00+19se1195100 3.6 101413
21 april, wed
wed2101:00+19ese019664 6.4 101312
04:00+18wnw119684 1.0 101311
07:00+20ene01935 1.4 101479
10:00+24nne118046 1.8 1014711
13:00+24n218185 6.8 1012685
16:00+22s0087100 3.8 1011340
19:00+19wsw1196100 4.9 101415
22:00+19sw1196100 0.3 101523
22 april, thu
thu2201:00+19ssw1196100 0.3 101318
04:00+18sw11950 0.0 101211
07:00+20n11910 0.0 101469
10:00+25nne117263 0.3 1013998
13:00+23nnw117954 1.4 1011431
16:00+23wnw127962 1.8 1010625
19:00+20wsw129653 3.4 101335
22:00+20wsw119481 0.8 101526